Starlink 1446

operational
NORAD ID: 45663 Int'l Des: 2020-035 Owner: SPXS Country: US Constellation: starlink
LEOCIRCULAR

About Starlink 1446

Description loading...

Live Position

Loading 3D Globe...

Upcoming Passes

Altitude History

Altitude vs Time

uPlot chart will show altitude changes over time

Two-Line Element Set

1 45663U 20035G 26036.60193377 .00031040 00000-0 73713-3 0 9999
2 45663 53.0242 151.6293 0003434 156.7880 203.3279 15.41439470314729
Epoch: Feb 5, 2026 • Age: 10 hours

Current Status

Altitude 444.3 km
Velocity 7.65 km/s
Sub-Earth Point 43.83°N, 143.04°E
Launch Date Jun 4, 2020
Age 5.6 years
Type internet

Technical Details

Classification Payload
Mass 260.00 kg
Dry Mass 248.00 kg
Total Mass 260.00 kg
Length 0.20 m
Diameter 2.80 m
Span 9.00 m
Shape Box + pan
Manufacturer SPXS
Bus Type Starlink
Phase Status In Orbit
Owner/State SPXS/US

Large Constellations

Loading constellations...